Time,TemperatureF,DewpointF,PressureIn,WindDirection,WindDirectionDegrees,WindSpeedMPH,WindSpeedGustMPH,Humidity,HourlyPrecipIn,Conditions,Clouds,dailyrainin,SoftwareType,DateUTC
2013-07-01 00:00:00,66.6,65.7,29.88,South,173,0.0,1.0,97,0.00,,---,0.00,VWS V14.01,2013-07-01 04:00:00,
2013-07-01 00:01:00,66.6,65.7,29.88,South,173,0.0,0.0,97,0.00,,---,0.00,VWS V14.01,2013-07-01 04:01:00,
2013-07-01 00:02:00,66.6,65.7,29.88,South,173,0.0,0.0,97,0.00,,---,0.00,VWS V14.01,2013-07-01 04:02:00,
2013-07-01 00:03:00,66.6,65.4,29.88,South,173,0.0,0.0,96,0.00,,---,0.00,VWS V14.01,2013-07-01 04:03:00,
2013-07-01 00:06:00,66.6,65.4,29.88,South,173,0.0,0.0,96,0.00,,---,0.00,VWS V14.01,2013-07-01 04:06:00,
2013-07-01 00:11:00,66.8,65.9,29.89,South,173,0.0,0.0,97,0.00,,---,0.00,VWS V14.01,2013-07-01 04:11:00,
2013-07-01 00:15:00,66.8,65.9,29.88,South,173,0.0,0.0,97,0.00,,---,0.00,VWS V14.01,2013-07-01 04:15:00,
2013-07-01 00:16:00,66.8,65.9,29.89,South,173,0.0,0.0,97,0.00,,---,0.00,VWS V14.01,2013-07-01 04:16:00,
2013-07-01 00:21:00,67.0,66.1,29.89,South,173,0.0,0.0,97,0.00,,---,0.00,VWS V14.01,2013-07-01 04:21:00,
2013-07-01 00:26:00,66.8,65.6,29.89,South,173,0.0,0.0,96,0.00,,---,0.00,VWS V14.01,2013-07-01 04:26:00,
2013-07-01 00:30:00,66.9,66.0,29.89,South,173,0.0,0.0,97,0.00,,---,0.00,VWS V14.01,2013-07-01 04:30:00,
2013-07-01 00:31:00,66.9,66.0,29.89,South,173,0.0,0.0,97,0.00,,---,0.00,VWS V14.01,2013-07-01 04:31:00,
2013-07-01 00:36:00,67.0,66.1,29.89,South,173,0.0,0.0,97,0.00,,---,0.00,VWS V14.01,2013-07-01 04:36:00,
2013-07-01 00:41:00,67.0,66.1,29.89,South,173,0.0,0.0,97,0.00,,---,0.00,VWS V14.01,2013-07-01 04:41:00,
2013-07-01 00:45:00,67.0,66.1,29.89,South,173,0.0,0.0,97,0.00,,---,0.00,VWS V14.01,2013-07-01 04:45:00,
2013-07-01 00:46:00,66.9,66.0,29.89,South,173,0.0,0.0,97,0.00,,---,0.00,VWS V14.01,2013-07-01 04:46:00,
2013-07-01 00:52:00,67.0,66.1,29.89,South,173,0.0,0.0,97,0.00,,---,0.00,VWS V14.01,2013-07-01 04:52:00,
2013-07-01 00:57:00,66.9,66.0,29.89,South,173,0.0,0.0,97,0.00,,---,0.00,VWS V14.01,2013-07-01 04:57:00,
2013-07-01 01:00:00,67.0,66.1,29.89,South,173,0.0,0.0,97,0.00,,---,0.00,VWS V14.01,2013-07-01 05:00:00,
2013-07-01 01:02:00,67.0,66.1,29.89,South,173,0.0,0.0,97,0.00,,---,0.00,VWS V14.01,2013-07-01 05:02:00,
2013-07-01 01:07:00,66.8,65.9,29.89,South,173,0.0,0.0,97,0.00,,---,0.00,VWS V14.01,2013-07-01 05:07:00,
2013-07-01 01:12:00,66.7,65.8,29.89,South,173,0.0,0.0,97,0.00,,---,0.00,VWS V14.01,2013-07-01 05:12:00,
2013-07-01 01:15:00,66.7,65.8,29.89,South,173,0.0,0.0,97,0.00,,---,0.00,VWS V14.01,2013-07-01 05:15:00,
2013-07-01 01:17:00,66.8,65.9,29.89,South,173,0.0,0.0,97,0.00,,---,0.00,VWS V14.01,2013-07-01 05:17:00,
2013-07-01 01:22:00,66.8,65.9,29.89,South,173,0.0,0.0,97,0.00,,---,0.00,VWS V14.01,2013-07-01 05:22:00,
2013-07-01 01:27:00,66.8,65.9,29.88,South,173,0.0,0.0,97,0.00,,---,0.00,VWS V14.01,2013-07-01 05:27:00,
2013-07-01 01:30:00,66.9,66.0,29.89,South,173,0.0,0.0,97,0.00,,---,0.00,VWS V14.01,2013-07-01 05:30:00,
2013-07-01 01:32:00,66.9,66.0,29.88,South,173,0.0,0.0,97,0.00,,---,0.00,VWS V14.01,2013-07-01 05:32:00,
2013-07-01 01:37:00,67.0,66.1,29.89,South,173,0.0,0.0,97,0.00,,---,0.00,VWS V14.01,2013-07-01 05:37:00,
2013-07-01 01:43:00,67.0,66.1,29.88,South,173,0.0,0.0,97,0.00,,---,0.00,VWS V14.01,2013-07-01 05:43:00,
2013-07-01 01:45:00,67.0,66.1,29.88,South,173,0.0,0.0,97,0.00,,---,0.00,VWS V14.01,2013-07-01 05:45:00,
2013-07-01 01:48:00,67.1,66.2,29.88,South,173,0.0,0.0,97,0.00,,---,0.00,VWS V14.01,2013-07-01 05:48:00,
2013-07-01 01:53:00,67.1,66.2,29.89,South,173,0.0,0.0,97,0.00,,---,0.00,VWS V14.01,2013-07-01 05:53:00,
2013-07-01 01:58:00,67.4,66.5,29.89,South,173,0.0,0.0,97,0.00,,---,0.00,VWS V14.01,2013-07-01 05:58:00,
2013-07-01 02:00:00,67.4,66.5,29.89,South,173,0.0,0.0,97,0.00,,---,0.00,VWS V14.01,2013-07-01 06:00:00,
2013-07-01 02:03:00,67.5,66.6,29.89,South,173,0.0,0.0,97,0.00,,---,0.00,VWS V14.01,2013-07-01 06:03:00,
2013-07-01 02:08:00,67.5,66.6,29.89,South,173,0.0,0.0,97,0.00,,---,0.00,VWS V14.01,2013-07-01 06:08:00,
2013-07-01 02:13:00,67.5,66.6,29.88,South,173,0.0,0.0,97,0.00,,---,0.00,VWS V14.01,2013-07-01 06:13:00,
2013-07-01 02:15:00,67.5,66.6,29.88,South,173,0.0,0.0,97,0.00,,---,0.00,VWS V14.01,2013-07-01 06:15:00,
2013-07-01 02:18:00,67.5,66.6,29.88,South,173,0.0,0.0,97,0.00,,---,0.00,VWS V14.01,2013-07-01 06:18:00,
2013-07-01 02:23:00,67.5,66.6,29.89,South,173,0.0,0.0,97,0.00,,---,0.00,VWS V14.01,2013-07-01 06:23:00,
2013-07-01 02:28:00,67.6,66.7,29.88,South,173,2.0,2.0,97,0.00,,---,0.00,VWS V14.01,2013-07-01 06:28:00,
2013-07-01 02:30:00,67.6,66.7,29.88,South,173,0.0,2.0,97,0.00,,---,0.00,VWS V14.01,2013-07-01 06:30:00,
2013-07-01 02:34:00,67.7,66.8,29.88,South,173,0.0,0.0,97,0.00,,---,0.00,VWS V14.01,2013-07-01 06:34:00,
2013-07-01 02:39:00,67.7,66.8,29.88,South,173,0.0,0.0,97,0.00,,---,0.00,VWS V14.01,2013-07-01 06:39:00,
2013-07-01 02:44:00,67.8,66.9,29.88,South,173,0.0,0.0,97,0.00,,---,0.00,VWS V14.01,2013-07-01 06:44:00,
2013-07-01 02:45:00,67.7,66.8,29.88,South,173,0.0,0.0,97,0.00,,---,0.00,VWS V14.01,2013-07-01 06:45:00,
2013-07-01 02:49:00,67.9,67.0,29.88,South,173,0.0,0.0,97,0.00,,---,0.00,VWS V14.01,2013-07-01 06:49:00,
2013-07-01 02:54:00,68.0,67.1,29.88,South,173,0.0,0.0,97,0.00,,---,0.00,VWS V14.01,2013-07-01 06:54:00,
2013-07-01 02:59:00,68.0,67.1,29.88,South,173,0.0,1.0,97,0.00,,---,0.00,VWS V14.01,2013-07-01 06:59:00,
2013-07-01 03:00:00,68.1,67.2,29.88,South,173,0.0,1.0,97,0.00,,---,0.00,VWS V14.01,2013-07-01 07:00:00,
2013-07-01 03:04:00,68.2,67.3,29.88,South,172,1.0,2.0,97,0.00,,---,0.00,VWS V14.01,2013-07-01 07:04:00,
2013-07-01 03:09:00,68.3,67.4,29.88,South,174,1.0,3.0,97,0.00,,---,0.00,VWS V14.01,2013-07-01 07:09:00,
2013-07-01 03:14:00,68.3,67.4,29.88,South,174,0.0,3.0,97,0.00,,---,0.00,VWS V14.01,2013-07-01 07:14:00,
2013-07-01 03:15:00,68.3,67.4,29.88,South,174,1.0,3.0,97,0.00,,---,0.00,VWS V14.01,2013-07-01 07:15:00,
2013-07-01 03:19:00,68.5,67.6,29.88,South,174,1.0,1.0,97,0.00,,---,0.00,VWS V14.01,2013-07-01 07:19:00,
2013-07-01 03:24:00,68.5,67.6,29.87,South,174,1.0,2.0,97,0.00,,---,0.00,VWS V14.01,2013-07-01 07:24:00,
2013-07-01 03:29:00,68.5,67.6,29.87,South,188,0.0,3.0,97,0.00,,---,0.00,VWS V14.01,2013-07-01 07:29:00,
2013-07-01 03:30:00,68.5,67.6,29.87,South,188,0.0,3.0,97,0.00,,---,0.00,VWS V14.01,2013-07-01 07:30:00,
2013-07-01 03:35:00,68.5,67.6,29.87,South,188,0.0,1.0,97,0.00,,---,0.00,VWS V14.01,2013-07-01 07:35:00,
2013-07-01 03:40:00,68.5,67.6,29.87,South,188,0.0,1.0,97,0.01,,---,0.01,VWS V14.01,2013-07-01 07:40:00,
2013-07-01 03:45:00,68.5,67.6,29.87,South,188,1.0,2.0,97,0.01,,---,0.01,VWS V14.01,2013-07-01 07:45:00,
2013-07-01 03:50:00,68.6,67.7,29.88,South,188,1.0,2.0,97,0.02,,---,0.02,VWS V14.01,2013-07-01 07:50:00,
2013-07-01 03:55:00,68.6,67.7,29.88,South,188,0.0,2.0,97,0.03,,---,0.03,VWS V14.01,2013-07-01 07:55:00,
2013-07-01 04:00:00,68.6,67.7,29.88,South,189,0.0,2.0,97,0.03,,---,0.03,VWS V14.01,2013-07-01 08:00:00,
2013-07-01 04:05:00,68.6,67.7,29.87,South,189,0.0,1.0,97,0.05,,---,0.05,VWS V14.01,2013-07-01 08:05:00,
2013-07-01 04:10:00,68.6,67.7,29.87,South,189,0.0,1.0,97,0.06,,---,0.06,VWS V14.01,2013-07-01 08:10:00,
2013-07-01 04:15:00,68.5,67.6,29.87,South,189,0.0,1.0,97,0.07,,---,0.07,VWS V14.01,2013-07-01 08:15:00,
2013-07-01 04:20:00,68.5,67.6,29.87,South,189,0.0,0.0,97,0.07,,---,0.07,VWS V14.01,2013-07-01 08:20:00,
2013-07-01 04:25:00,68.6,67.7,29.87,South,189,0.0,0.0,97,0.07,,---,0.07,VWS V14.01,2013-07-01 08:25:00,
2013-07-01 04:30:00,68.6,67.7,29.86,South,189,0.0,0.0,97,0.08,,---,0.08,VWS V14.01,2013-07-01 08:30:00,
2013-07-01 04:35:00,68.5,67.6,29.86,South,189,0.0,0.0,97,0.08,,---,0.08,VWS V14.01,2013-07-01 08:35:00,
2013-07-01 04:40:00,68.4,67.5,29.86,South,189,0.0,0.0,97,0.08,,---,0.08,VWS V14.01,2013-07-01 08:40:00,
2013-07-01 04:45:00,68.4,67.5,29.87,South,189,0.0,0.0,97,0.08,,---,0.08,VWS V14.01,2013-07-01 08:45:00,
2013-07-01 04:46:00,68.4,67.5,29.87,South,189,0.0,0.0,97,0.07,,---,0.08,VWS V14.01,2013-07-01 08:46:00,
2013-07-01 04:51:00,68.4,67.5,29.88,South,189,0.0,0.0,97,0.07,,---,0.08,VWS V14.01,2013-07-01 08:51:00,
2013-07-01 04:56:00,68.5,67.6,29.88,South,189,0.0,0.0,97,0.07,,---,0.08,VWS V14.01,2013-07-01 08:56:00,
2013-07-01 05:00:00,68.4,67.5,29.88,South,189,0.0,1.0,97,0.07,,---,0.08,VWS V14.01,2013-07-01 09:00:00,
2013-07-01 05:01:00,68.4,67.5,29.89,South,189,0.0,1.0,97,0.04,,---,0.08,VWS V14.01,2013-07-01 09:01:00,
2013-07-01 05:06:00,68.5,67.6,29.89,South,189,0.0,1.0,97,0.05,,---,0.09,VWS V14.01,2013-07-01 09:06:00,
2013-07-01 05:11:00,68.6,67.7,29.89,South,189,0.0,1.0,97,0.05,,---,0.09,VWS V14.01,2013-07-01 09:11:00,
2013-07-01 05:15:00,68.6,67.7,29.89,South,189,0.0,1.0,97,0.05,,---,0.09,VWS V14.01,2013-07-01 09:15:00,
2013-07-01 05:16:00,68.6,67.7,29.89,South,189,0.0,0.0,97,0.02,,---,0.09,VWS V14.01,2013-07-01 09:16:00,
2013-07-01 05:21:00,68.7,67.8,29.89,South,189,0.0,1.0,97,0.03,,---,0.10,VWS V14.01,2013-07-01 09:21:00,
2013-07-01 05:27:00,68.5,67.6,29.89,South,189,0.0,1.0,97,0.03,,---,0.10,VWS V14.01,2013-07-01 09:27:00,
2013-07-01 05:30:00,68.6,67.7,29.89,South,189,0.0,1.0,97,0.03,,---,0.10,VWS V14.01,2013-07-01 09:30:00,
2013-07-01 05:32:00,68.6,67.7,29.89,South,189,0.0,0.0,97,0.02,,---,0.10,VWS V14.01,2013-07-01 09:32:00,
2013-07-01 05:37:00,68.5,67.6,29.89,South,189,0.0,0.0,97,0.02,,---,0.10,VWS V14.01,2013-07-01 09:37:00,
2013-07-01 05:42:00,68.5,67.6,29.90,South,189,0.0,0.0,97,0.02,,---,0.10,VWS V14.01,2013-07-01 09:42:00,
2013-07-01 05:45:00,68.4,67.5,29.90,South,189,0.0,0.0,97,0.03,,---,0.11,VWS V14.01,2013-07-01 09:45:00,
2013-07-01 05:47:00,68.5,67.6,29.90,South,189,0.0,0.0,97,0.03,,---,0.11,VWS V14.01,2013-07-01 09:47:00,
2013-07-01 05:52:00,68.6,68.0,29.90,South,189,0.0,0.0,98,0.03,,---,0.11,VWS V14.01,2013-07-01 09:52:00,
2013-07-01 05:57:00,68.7,68.1,29.90,South,189,0.0,2.0,98,0.03,,---,0.11,VWS V14.01,2013-07-01 09:57:00,
2013-07-01 06:00:00,68.7,68.1,29.90,South,189,0.0,2.0,98,0.03,,---,0.11,VWS V14.01,2013-07-01 10:00:00,
2013-07-01 06:03:00,68.7,67.8,29.90,South,189,0.0,0.0,97,0.03,,---,0.11,VWS V14.01,2013-07-01 10:03:00,
2013-07-01 06:08:00,68.8,67.9,29.91,South,189,0.0,0.0,97,0.03,,---,0.11,VWS V14.01,2013-07-01 10:08:00,
2013-07-01 06:13:00,68.8,67.9,29.91,South,189,0.0,1.0,97,0.03,,---,0.11,VWS V14.01,2013-07-01 10:13:00,
2013-07-01 06:15:00,68.8,67.9,29.91,South,189,0.0,1.0,97,0.03,,---,0.11,VWS V14.01,2013-07-01 10:15:00,
2013-07-01 06:18:00,68.8,67.9,29.91,South,189,0.0,0.0,97,0.02,,---,0.11,VWS V14.01,2013-07-01 10:18:00,
2013-07-01 06:23:00,68.8,67.9,29.91,South,189,0.0,0.0,97,0.02,,---,0.11,VWS V14.01,2013-07-01 10:23:00,
2013-07-01 06:28:00,68.7,67.8,29.92,South,189,0.0,1.0,97,0.02,,---,0.11,VWS V14.01,2013-07-01 10:28:00,
2013-07-01 06:30:00,68.7,67.8,29.92,South,189,0.0,1.0,97,0.02,,---,0.11,VWS V14.01,2013-07-01 10:30:00,
2013-07-01 06:33:00,68.7,67.8,29.92,South,189,0.0,1.0,97,0.01,,---,0.11,VWS V14.01,2013-07-01 10:33:00,
2013-07-01 06:39:00,68.7,67.8,29.92,South,189,0.0,1.0,97,0.02,,---,0.12,VWS V14.01,2013-07-01 10:39:00,
2013-07-01 06:44:00,68.7,67.8,29.91,South,189,0.0,1.0,97,0.02,,---,0.12,VWS V14.01,2013-07-01 10:44:00,
2013-07-01 06:45:00,68.7,67.8,29.91,South,189,0.0,1.0,97,0.02,,---,0.12,VWS V14.01,2013-07-01 10:45:00,
2013-07-01 06:49:00,68.7,67.8,29.91,South,189,0.0,0.0,97,0.01,,---,0.12,VWS V14.01,2013-07-01 10:49:00,
2013-07-01 06:54:00,68.6,67.7,29.91,South,189,0.0,0.0,97,0.01,,---,0.12,VWS V14.01,2013-07-01 10:54:00,
2013-07-01 06:59:00,68.6,67.7,29.91,South,189,0.0,0.0,97,0.01,,---,0.12,VWS V14.01,2013-07-01 10:59:00,
2013-07-01 07:00:00,68.6,67.7,29.91,South,189,0.0,0.0,97,0.01,,---,0.12,VWS V14.01,2013-07-01 11:00:00,
2013-07-01 07:04:00,68.7,67.8,29.91,South,189,0.0,0.0,97,0.01,,---,0.12,VWS V14.01,2013-07-01 11:04:00,
2013-07-01 07:09:00,68.7,67.8,29.91,South,189,0.0,1.0,97,0.01,,---,0.12,VWS V14.01,2013-07-01 11:09:00,
2013-07-01 07:14:00,68.8,67.9,29.92,South,189,1.0,1.0,97,0.01,,---,0.12,VWS V14.01,2013-07-01 11:14:00,
2013-07-01 07:15:00,68.8,67.9,29.92,South,189,1.0,1.0,97,0.01,,---,0.12,VWS V14.01,2013-07-01 11:15:00,
2013-07-01 07:20:00,68.9,68.0,29.92,South,184,1.0,3.0,97,0.01,,---,0.12,VWS V14.01,2013-07-01 11:20:00,
2013-07-01 07:25:00,69.0,68.1,29.92,South,184,0.0,3.0,97,0.01,,---,0.12,VWS V14.01,2013-07-01 11:25:00,
2013-07-01 07:30:00,69.2,68.6,29.92,South,184,0.0,3.0,98,0.01,,---,0.12,VWS V14.01,2013-07-01 11:30:00,
2013-07-01 07:35:00,69.1,68.5,29.92,South,184,1.0,3.0,98,0.01,,---,0.12,VWS V14.01,2013-07-01 11:35:00,
2013-07-01 07:40:00,69.0,68.1,29.92,South,184,1.0,3.0,97,0.01,,---,0.12,VWS V14.01,2013-07-01 11:40:00,
2013-07-01 07:45:00,69.0,68.1,29.92,South,180,0.0,0.0,97,0.00,,---,0.12,VWS V14.01,2013-07-01 11:45:00,
2013-07-01 07:50:00,69.1,68.2,29.92,South,181,0.0,3.0,97,0.00,,---,0.12,VWS V14.01,2013-07-01 11:50:00,
2013-07-01 07:55:00,69.2,68.3,29.92,South,181,0.0,3.0,97,0.00,,---,0.12,VWS V14.01,2013-07-01 11:55:00,
2013-07-01 08:00:00,69.2,68.3,29.93,South,181,0.0,3.0,97,0.00,,---,0.12,VWS V14.01,2013-07-01 12:00:00,
2013-07-01 08:01:00,69.2,68.3,29.93,South,181,0.0,0.0,97,0.00,,---,0.12,VWS V14.01,2013-07-01 12:01:00,
2013-07-01 08:06:00,69.2,68.3,29.93,South,181,0.0,1.0,97,0.00,,---,0.12,VWS V14.01,2013-07-01 12:06:00,
2013-07-01 08:11:00,69.2,68.3,29.93,South,181,0.0,2.0,97,0.00,,---,0.12,VWS V14.01,2013-07-01 12:11:00,
2013-07-01 08:15:00,69.2,68.3,29.93,South,181,0.0,2.0,97,0.00,,---,0.12,VWS V14.01,2013-07-01 12:15:00,
2013-07-01 08:16:00,69.3,68.4,29.93,South,181,0.0,0.0,97,0.00,,---,0.12,VWS V14.01,2013-07-01 12:16:00,
2013-07-01 08:21:00,69.4,68.5,29.93,South,181,0.0,1.0,97,0.00,,---,0.12,VWS V14.01,2013-07-01 12:21:00,
2013-07-01 08:26:00,69.7,68.8,29.94,South,187,0.0,2.0,97,0.00,,---,0.12,VWS V14.01,2013-07-01 12:26:00,
2013-07-01 08:30:00,69.7,68.8,29.94,SSW,198,0.0,3.0,97,0.00,,---,0.12,VWS V14.01,2013-07-01 12:30:00,
2013-07-01 08:31:00,69.7,68.8,29.93,SSW,198,0.0,0.0,97,0.00,,---,0.12,VWS V14.01,2013-07-01 12:31:00,
2013-07-01 08:36:00,70.0,69.1,29.94,SSW,198,0.0,2.0,97,0.00,,---,0.12,VWS V14.01,2013-07-01 12:36:00,
2013-07-01 08:41:00,70.1,69.2,29.94,South,172,1.0,3.0,97,0.00,,---,0.12,VWS V14.01,2013-07-01 12:41:00,
2013-07-01 08:45:00,70.3,69.1,29.94,South,172,0.0,3.0,96,0.00,,---,0.12,VWS V14.01,2013-07-01 12:45:00,
2013-07-01 08:47:00,70.4,69.5,29.94,South,180,2.0,4.0,97,0.00,,---,0.12,VWS V14.01,2013-07-01 12:47:00,
2013-07-01 08:52:00,70.6,69.4,29.94,South,178,2.0,6.0,96,0.00,,---,0.12,VWS V14.01,2013-07-01 12:52:00,
2013-07-01 08:57:00,70.9,69.7,29.94,South,186,2.0,6.0,96,0.00,,---,0.12,VWS V14.01,2013-07-01 12:57:00,
2013-07-01 09:00:00,71.1,69.9,29.94,South,173,2.0,6.0,96,0.00,,---,0.12,VWS V14.01,2013-07-01 13:00:00,
2013-07-01 09:02:00,71.3,70.1,29.94,SSE,159,0.0,3.0,96,0.00,,---,0.12,VWS V14.01,2013-07-01 13:02:00,
2013-07-01 09:07:00,71.6,70.4,29.94,South,171,2.0,3.0,96,0.00,,---,0.12,VWS V14.01,2013-07-01 13:07:00,
2013-07-01 09:12:00,71.6,70.1,29.94,SSW,197,1.0,3.0,95,0.00,,---,0.12,VWS V14.01,2013-07-01 13:12:00,
2013-07-01 09:15:00,71.7,70.2,29.94,SW,219,0.0,3.0,95,0.00,,---,0.12,VWS V14.01,2013-07-01 13:15:00,
2013-07-01 09:17:00,71.9,70.7,29.94,SW,214,4.0,4.0,96,0.00,,---,0.12,VWS V14.01,2013-07-01 13:17:00,
2013-07-01 09:23:00,71.9,70.1,29.94,SSW,207,0.0,4.0,94,0.00,,---,0.12,VWS V14.01,2013-07-01 13:23:00,
2013-07-01 09:28:00,71.9,69.8,29.94,South,169,0.0,5.0,93,0.00,,---,0.12,VWS V14.01,2013-07-01 13:28:00,
2013-07-01 09:30:00,71.8,69.7,29.94,SSE,156,3.0,5.0,93,0.00,,---,0.12,VWS V14.01,2013-07-01 13:30:00,
2013-07-01 09:33:00,71.9,69.8,29.94,South,181,1.0,4.0,93,0.00,,---,0.12,VWS V14.01,2013-07-01 13:33:00,
2013-07-01 09:38:00,72.2,70.1,29.94,South,191,1.0,4.0,93,0.00,,---,0.12,VWS V14.01,2013-07-01 13:38:00,
2013-07-01 09:43:00,72.5,70.4,29.95,South,174,0.0,4.0,93,0.00,,---,0.12,VWS V14.01,2013-07-01 13:43:00,
2013-07-01 09:45:00,72.8,70.7,29.94,SSE,168,1.0,4.0,93,0.00,,---,0.12,VWS V14.01,2013-07-01 13:45:00,
2013-07-01 09:48:00,73.1,70.6,29.95,SSW,194,0.0,4.0,92,0.00,,---,0.12,VWS V14.01,2013-07-01 13:48:00,
2013-07-01 09:53:00,73.7,70.9,29.94,SSE,163,0.0,4.0,91,0.00,,---,0.12,VWS V14.01,2013-07-01 13:53:00,
2013-07-01 09:58:00,74.8,72.0,29.94,South,186,1.0,4.0,91,0.00,,---,0.12,VWS V14.01,2013-07-01 13:58:00,
2013-07-01 10:00:00,75.3,72.8,29.94,South,178,1.0,4.0,92,0.00,,---,0.12,VWS V14.01,2013-07-01 14:00:00,
2013-07-01 10:04:00,75.3,71.2,29.94,South,184,1.0,4.0,87,0.00,,---,0.12,VWS V14.01,2013-07-01 14:04:00,
2013-07-01 10:09:00,74.9,71.4,29.94,SSW,213,2.0,4.0,89,0.00,,---,0.12,VWS V14.01,2013-07-01 14:09:00,
2013-07-01 10:14:00,73.9,70.5,29.94,SW,215,0.0,4.0,89,0.00,,---,0.12,VWS V14.01,2013-07-01 14:14:00,
2013-07-01 10:15:00,73.8,70.4,29.95,SW,215,1.0,4.0,89,0.00,,---,0.12,VWS V14.01,2013-07-01 14:15:00,
2013-07-01 10:19:00,73.8,70.7,29.95,WSW,239,0.0,2.0,90,0.00,,---,0.12,VWS V14.01,2013-07-01 14:19:00,
2013-07-01 10:24:00,74.2,71.4,29.95,WSW,244,0.0,3.0,91,0.00,,---,0.12,VWS V14.01,2013-07-01 14:24:00,
2013-07-01 10:27:00,74.3,70.8,29.95,SW,221,2.0,3.0,89,0.00,,---,0.12,VWS V14.01,2013-07-01 14:27:00,
2013-07-01 10:30:00,74.2,70.8,29.95,SSE,167,0.0,4.0,89,0.00,,---,0.12,VWS V14.01,2013-07-01 14:30:00,
2013-07-01 10:32:00,74.3,70.8,29.95,SSE,167,0.0,1.0,89,0.00,,---,0.12,VWS V14.01,2013-07-01 14:32:00,
2013-07-01 10:37:00,74.4,69.9,29.95,SE,138,3.0,4.0,86,0.00,,---,0.12,VWS V14.01,2013-07-01 14:37:00,
2013-07-01 10:42:00,74.6,70.5,29.95,SSE,156,2.0,4.0,87,0.00,,---,0.12,VWS V14.01,2013-07-01 14:42:00,
2013-07-01 10:45:00,74.4,69.9,29.95,SW,215,3.0,4.0,86,0.00,,---,0.12,VWS V14.01,2013-07-01 14:45:00,
2013-07-01 10:47:00,74.3,69.8,29.95,SE,138,2.0,4.0,86,0.00,,---,0.12,VWS V14.01,2013-07-01 14:47:00,
2013-07-01 10:52:00,74.3,70.5,29.95,ESE,123,3.0,5.0,88,0.00,,---,0.12,VWS V14.01,2013-07-01 14:52:00,
2013-07-01 10:57:00,74.3,70.5,29.95,SE,136,2.0,5.0,88,0.00,,---,0.12,VWS V14.01,2013-07-01 14:57:00,
2013-07-01 11:00:00,74.3,70.2,29.95,SE,138,0.0,5.0,87,0.00,,---,0.12,VWS V14.01,2013-07-01 15:00:00,
2013-07-01 11:02:00,74.4,69.9,29.95,SE,138,0.0,1.0,86,0.00,,---,0.12,VWS V14.01,2013-07-01 15:02:00,
2013-07-01 11:08:00,74.7,70.2,29.95,SE,137,0.0,1.0,86,0.00,,---,0.12,VWS V14.01,2013-07-01 15:08:00,
2013-07-01 11:13:00,75.4,70.9,29.95,SE,134,0.0,4.0,86,0.00,,---,0.12,VWS V14.01,2013-07-01 15:13:00,
2013-07-01 11:15:00,75.4,70.6,29.95,SSE,158,1.0,4.0,85,0.00,,---,0.12,VWS V14.01,2013-07-01 15:15:00,
2013-07-01 11:18:00,75.4,70.2,29.95,ESE,122,0.0,3.0,84,0.00,,---,0.12,VWS V14.01,2013-07-01 15:18:00,
2013-07-01 11:23:00,75.5,71.0,29.95,SSE,153,2.0,3.0,86,0.00,,---,0.12,VWS V14.01,2013-07-01 15:23:00,
2013-07-01 11:28:00,75.7,71.2,29.95,SSE,152,2.0,3.0,86,0.00,,---,0.12,VWS V14.01,2013-07-01 15:28:00,
2013-07-01 11:30:00,75.7,70.9,29.95,SSE,150,3.0,4.0,85,0.00,,---,0.12,VWS V14.01,2013-07-01 15:30:00,
2013-07-01 11:33:00,75.8,71.3,29.95,SSE,150,4.0,5.0,86,0.00,,---,0.12,VWS V14.01,2013-07-01 15:33:00,
2013-07-01 11:38:00,75.8,71.0,29.95,SSE,156,0.0,5.0,85,0.00,,---,0.12,VWS V14.01,2013-07-01 15:38:00,
2013-07-01 11:43:00,75.9,70.7,29.95,SE,128,1.0,5.0,84,0.00,,---,0.12,VWS V14.01,2013-07-01 15:43:00,
2013-07-01 11:45:00,75.8,70.6,29.95,SSE,167,3.0,5.0,84,0.00,,---,0.12,VWS V14.01,2013-07-01 15:45:00,
2013-07-01 11:48:00,75.4,70.2,29.95,South,188,1.0,3.0,84,0.00,,---,0.12,VWS V14.01,2013-07-01 15:48:00,
2013-07-01 11:53:00,75.1,70.3,29.95,SSE,160,0.0,3.0,85,0.00,,---,0.12,VWS V14.01,2013-07-01 15:53:00,
2013-07-01 11:58:00,75.1,71.0,29.95,SE,127,0.0,4.0,87,0.00,,---,0.12,VWS V14.01,2013-07-01 15:58:00,
2013-07-01 12:00:00,75.1,71.0,29.95,SSE,160,4.0,5.0,87,0.00,,---,0.12,VWS V14.01,2013-07-01 16:00:00,
2013-07-01 12:03:00,74.8,70.7,29.95,SSE,153,4.0,4.0,87,0.00,,---,0.12,VWS V14.01,2013-07-01 16:03:00,
2013-07-01 12:09:00,74.6,70.5,29.95,SSE,161,2.0,6.0,87,0.00,,---,0.12,VWS V14.01,2013-07-01 16:09:00,
2013-07-01 12:14:00,74.4,70.6,29.95,SSE,167,1.0,6.0,88,0.00,,---,0.12,VWS V14.01,2013-07-01 16:14:00,
2013-07-01 12:15:00,74.4,70.3,29.95,ESE,119,2.0,6.0,87,0.00,,---,0.12,VWS V14.01,2013-07-01 16:15:00,
2013-07-01 12:19:00,74.4,70.6,29.95,South,169,0.0,4.0,88,0.00,,---,0.12,VWS V14.01,2013-07-01 16:19:00,
2013-07-01 12:24:00,74.8,71.0,29.95,SSE,153,2.0,5.0,88,0.00,,---,0.12,VWS V14.01,2013-07-01 16:24:00,
2013-07-01 12:29:00,74.9,70.8,29.95,ESE,121,1.0,6.0,87,0.00,,---,0.12,VWS V14.01,2013-07-01 16:29:00,
2013-07-01 12:30:00,74.9,70.8,29.95,ESE,121,2.0,6.0,87,0.00,,---,0.12,VWS V14.01,2013-07-01 16:30:00,
2013-07-01 12:34:00,74.8,71.0,29.95,ESE,121,4.0,6.0,88,0.00,,---,0.12,VWS V14.01,2013-07-01 16:34:00,
2013-07-01 12:39:00,74.7,70.9,29.95,SSE,160,0.0,6.0,88,0.00,,---,0.12,VWS V14.01,2013-07-01 16:39:00,
2013-07-01 12:44:00,74.9,71.1,29.95,ESE,115,2.0,6.0,88,0.00,,---,0.12,VWS V14.01,2013-07-01 16:44:00,
2013-07-01 12:45:00,74.9,71.1,29.95,South,188,4.0,6.0,88,0.00,,---,0.12,VWS V14.01,2013-07-01 16:45:00,
2013-07-01 12:49:00,75.0,71.2,29.95,SSE,165,6.0,6.0,88,0.00,,---,0.12,VWS V14.01,2013-07-01 16:49:00,
2013-07-01 12:54:00,75.6,71.5,29.95,SSE,156,2.0,7.0,87,0.00,,---,0.12,VWS V14.01,2013-07-01 16:54:00,
2013-07-01 12:59:00,76.7,71.5,29.95,ESE,119,2.0,7.0,84,0.00,,---,0.12,VWS V14.01,2013-07-01 16:59:00,
2013-07-01 13:00:00,76.7,71.5,29.95,South,170,2.0,7.0,84,0.00,,---,0.12,VWS V14.01,2013-07-01 17:00:00,
2013-07-01 13:04:00,77.6,72.4,29.95,East,86,3.0,7.0,84,0.00,,---,0.12,VWS V14.01,2013-07-01 17:04:00,
2013-07-01 13:10:00,77.6,72.0,29.95,SSE,159,3.0,8.0,83,0.00,,---,0.12,VWS V14.01,2013-07-01 17:10:00,
2013-07-01 13:15:00,77.3,71.7,29.95,SE,139,1.0,8.0,83,0.00,,---,0.12,VWS V14.01,2013-07-01 17:15:00,
2013-07-01 13:20:00,77.5,71.2,29.95,ESE,116,1.0,5.0,81,0.00,,---,0.12,VWS V14.01,2013-07-01 17:20:00,
2013-07-01 13:25:00,78.0,72.1,29.95,South,173,3.0,6.0,82,0.00,,---,0.12,VWS V14.01,2013-07-01 17:25:00,
2013-07-01 13:30:00,77.9,71.6,29.95,South,171,4.0,6.0,81,0.00,,---,0.12,VWS V14.01,2013-07-01 17:30:00,
2013-07-01 13:35:00,77.9,71.6,29.95,SE,128,2.0,7.0,81,0.00,,---,0.12,VWS V14.01,2013-07-01 17:35:00,
2013-07-01 13:40:00,78.2,71.5,29.95,SE,129,1.0,7.0,80,0.00,,---,0.12,VWS V14.01,2013-07-01 17:40:00,
2013-07-01 13:45:00,77.7,71.8,29.96,SE,132,2.0,3.0,82,0.00,,---,0.12,VWS V14.01,2013-07-01 17:45:00,
2013-07-01 13:51:00,78.0,71.3,29.95,South,171,1.0,6.0,80,0.00,,---,0.12,VWS V14.01,2013-07-01 17:51:00,
2013-07-01 13:56:00,78.5,71.8,29.95,ESE,119,2.0,6.0,80,0.00,,---,0.12,VWS V14.01,2013-07-01 17:56:00,
2013-07-01 14:00:00,78.4,71.0,29.95,ESE,113,2.0,6.0,78,0.00,,---,0.12,VWS V14.01,2013-07-01 18:00:00,
2013-07-01 14:01:00,78.4,71.3,29.95,ESE,119,4.0,4.0,79,0.00,,---,0.12,VWS V14.01,2013-07-01 18:01:00,
2013-07-01 14:06:00,78.5,71.8,29.95,SSE,165,3.0,6.0,80,0.00,,---,0.12,VWS V14.01,2013-07-01 18:06:00,
2013-07-01 14:11:00,78.2,71.2,29.95,SSE,163,3.0,6.0,79,0.00,,---,0.12,VWS V14.01,2013-07-01 18:11:00,
2013-07-01 14:15:00,78.3,72.0,29.95,ESE,109,1.0,6.0,81,0.00,,---,0.12,VWS V14.01,2013-07-01 18:15:00,
2013-07-01 14:16:00,78.6,72.3,29.94,SE,146,0.0,2.0,81,0.00,,---,0.12,VWS V14.01,2013-07-01 18:16:00,
2013-07-01 14:21:00,79.3,72.2,29.94,SSE,165,4.0,6.0,79,0.00,,---,0.12,VWS V14.01,2013-07-01 18:21:00,
2013-07-01 14:26:00,79.5,72.8,29.94,SSE,154,1.0,6.0,80,0.00,,---,0.12,VWS V14.01,2013-07-01 18:26:00,
2013-07-01 14:30:00,79.1,71.3,29.94,SE,132,2.0,8.0,77,0.00,,---,0.12,VWS V14.01,2013-07-01 18:30:00,
2013-07-01 14:31:00,78.8,71.0,29.94,SE,125,2.0,2.0,77,0.00,,---,0.12,VWS V14.01,2013-07-01 18:31:00,
2013-07-01 14:36:00,78.4,71.7,29.94,SSE,158,2.0,8.0,80,0.00,,---,0.12,VWS V14.01,2013-07-01 18:36:00,
2013-07-01 14:41:00,78.4,71.3,29.94,SE,143,1.0,8.0,79,0.00,,---,0.12,VWS V14.01,2013-07-01 18:41:00,
2013-07-01 14:45:00,78.3,71.3,29.94,SE,132,2.0,10.0,79,0.00,,---,0.12,VWS V14.01,2013-07-01 18:45:00,
2013-07-01 14:47:00,78.2,71.2,29.94,SE,144,2.0,5.0,79,0.00,,---,0.12,VWS V14.01,2013-07-01 18:47:00,
2013-07-01 14:52:00,78.3,71.6,29.94,SE,138,8.0,8.0,80,0.00,,---,0.12,VWS V14.01,2013-07-01 18:52:00,
2013-07-01 14:57:00,78.4,72.1,29.94,SSE,167,2.0,8.0,81,0.00,,---,0.12,VWS V14.01,2013-07-01 18:57:00,
2013-07-01 15:00:00,78.9,73.3,29.94,SSE,159,2.0,8.0,83,0.00,,---,0.12,VWS V14.01,2013-07-01 19:00:00,
2013-07-01 15:02:00,79.2,73.2,29.94,South,180,6.0,7.0,82,0.00,,---,0.12,VWS V14.01,2013-07-01 19:02:00,
2013-07-01 15:07:00,78.9,72.6,29.94,SSE,148,1.0,8.0,81,0.00,,---,0.12,VWS V14.01,2013-07-01 19:07:00,
2013-07-01 15:12:00,78.6,71.6,29.94,SSE,158,4.0,8.0,79,0.00,,---,0.12,VWS V14.01,2013-07-01 19:12:00,
2013-07-01 15:15:00,78.6,71.6,29.94,SSW,194,0.0,8.0,79,0.00,,---,0.12,VWS V14.01,2013-07-01 19:15:00,
2013-07-01 15:17:00,78.9,71.8,29.94,South,170,3.0,5.0,79,0.00,,---,0.12,VWS V14.01,2013-07-01 19:17:00,
2013-07-01 15:22:00,79.6,71.8,29.94,ESE,114,2.0,8.0,77,0.00,,---,0.12,VWS V14.01,2013-07-01 19:22:00,
2013-07-01 15:27:00,79.3,72.6,29.93,SSW,207,3.0,9.0,80,0.00,,---,0.12,VWS V14.01,2013-07-01 19:27:00,
2013-07-01 15:30:00,79.5,72.8,29.93,ESE,111,4.0,9.0,80,0.00,,---,0.12,VWS V14.01,2013-07-01 19:30:00,
2013-07-01 15:32:00,79.3,72.2,29.93,SSW,192,2.0,7.0,79,0.00,,---,0.12,VWS V14.01,2013-07-01 19:32:00,
2013-07-01 15:37:00,79.1,71.7,29.93,ESE,115,3.0,7.0,78,0.00,,---,0.12,VWS V14.01,2013-07-01 19:37:00,
2013-07-01 15:42:00,79.1,72.0,29.93,SE,126,2.0,8.0,79,0.00,,---,0.12,VWS V14.01,2013-07-01 19:42:00,
2013-07-01 15:45:00,79.2,72.1,29.94,South,175,4.0,8.0,79,0.00,,---,0.12,VWS V14.01,2013-07-01 19:45:00,
2013-07-01 15:47:00,79.2,71.4,29.94,SSE,161,6.0,6.0,77,0.00,,---,0.12,VWS V14.01,2013-07-01 19:47:00,
2013-07-01 15:52:00,79.9,72.4,29.94,ESE,123,3.0,6.0,78,0.00,,---,0.12,VWS V14.01,2013-07-01 19:52:00,
2013-07-01 15:58:00,80.2,72.7,29.93,South,184,4.0,6.0,78,0.00,,---,0.12,VWS V14.01,2013-07-01 19:58:00,
2013-07-01 16:00:00,79.9,72.8,29.93,SSE,164,0.0,6.0,79,0.00,,---,0.12,VWS V14.01,2013-07-01 20:00:00,
2013-07-01 16:03:00,79.7,72.6,29.93,SE,126,1.0,3.0,79,0.00,,---,0.12,VWS V14.01,2013-07-01 20:03:00,
2013-07-01 16:08:00,79.3,71.8,29.93,SSE,167,1.0,7.0,78,0.00,,---,0.12,VWS V14.01,2013-07-01 20:08:00,
2013-07-01 16:13:00,78.9,71.1,29.93,SE,141,4.0,7.0,77,0.00,,---,0.12,VWS V14.01,2013-07-01 20:13:00,
2013-07-01 16:15:00,79.0,71.6,29.93,SE,139,5.0,7.0,78,0.00,,---,0.12,VWS V14.01,2013-07-01 20:15:00,
2013-07-01 16:18:00,79.0,71.6,29.93,South,171,4.0,5.0,78,0.00,,---,0.12,VWS V14.01,2013-07-01 20:18:00,
2013-07-01 16:23:00,79.1,71.7,29.94,SE,137,5.0,6.0,78,0.00,,---,0.12,VWS V14.01,2013-07-01 20:23:00,
2013-07-01 16:28:00,78.9,71.5,29.94,SSW,212,6.0,8.0,78,0.00,,---,0.12,VWS V14.01,2013-07-01 20:28:00,
2013-07-01 16:30:00,78.8,71.7,29.94,South,169,1.0,8.0,79,0.00,,---,0.12,VWS V14.01,2013-07-01 20:30:00,
2013-07-01 16:33:00,79.0,71.9,29.94,SSW,198,5.0,5.0,79,0.00,,---,0.12,VWS V14.01,2013-07-01 20:33:00,
2013-07-01 16:38:00,79.1,71.7,29.93,SSE,163,4.0,6.0,78,0.00,,---,0.12,VWS V14.01,2013-07-01 20:38:00,
2013-07-01 16:44:00,78.9,71.8,29.94,SSE,168,1.0,6.0,79,0.00,,---,0.12,VWS V14.01,2013-07-01 20:44:00,
2013-07-01 16:45:00,78.9,71.8,29.94,SSE,158,1.0,6.0,79,0.00,,---,0.12,VWS V14.01,2013-07-01 20:45:00,
2013-07-01 16:49:00,79.2,72.1,29.94,SSW,196,3.0,5.0,79,0.00,,---,0.12,VWS V14.01,2013-07-01 20:49:00,
2013-07-01 16:54:00,79.6,72.5,29.94,SSE,165,2.0,5.0,79,0.00,,---,0.12,VWS V14.01,2013-07-01 20:54:00,
2013-07-01 16:59:00,80.3,73.2,29.94,South,179,1.0,8.0,79,0.00,,---,0.12,VWS V14.01,2013-07-01 20:59:00,
2013-07-01 17:00:00,80.3,73.2,29.94,South,189,3.0,8.0,79,0.00,,---,0.12,VWS V14.01,2013-07-01 21:00:00,
2013-07-01 17:04:00,80.2,72.3,29.94,South,172,3.0,10.0,77,0.00,,---,0.12,VWS V14.01,2013-07-01 21:04:00,
2013-07-01 17:09:00,79.7,71.9,29.94,South,188,3.0,10.0,77,0.00,,---,0.12,VWS V14.01,2013-07-01 21:09:00,
2013-07-01 17:14:00,79.7,71.9,29.95,South,182,2.0,10.0,77,0.00,,---,0.12,VWS V14.01,2013-07-01 21:14:00,
2013-07-01 17:15:00,79.7,72.2,29.95,South,187,2.0,10.0,78,0.00,,---,0.12,VWS V14.01,2013-07-01 21:15:00,
2013-07-01 17:19:00,79.6,71.8,29.94,SSE,163,1.0,9.0,77,0.00,,---,0.12,VWS V14.01,2013-07-01 21:19:00,
2013-07-01 17:24:00,80.5,73.4,29.94,South,175,4.0,9.0,79,0.00,,---,0.12,VWS V14.01,2013-07-01 21:24:00,
2013-07-01 17:29:00,80.9,73.4,29.94,South,175,2.0,9.0,78,0.00,,---,0.12,VWS V14.01,2013-07-01 21:29:00,
2013-07-01 17:30:00,80.9,73.4,29.94,SSE,159,8.0,9.0,78,0.00,,---,0.12,VWS V14.01,2013-07-01 21:30:00,
2013-07-01 17:34:00,80.7,72.4,29.94,SW,227,6.0,10.0,76,0.00,,---,0.12,VWS V14.01,2013-07-01 21:34:00,
2013-07-01 17:39:00,80.5,72.6,29.94,South,183,5.0,10.0,77,0.00,,---,0.12,VWS V14.01,2013-07-01 21:39:00,
2013-07-01 17:45:00,80.2,71.9,29.94,South,173,3.0,10.0,76,0.00,,---,0.12,VWS V14.01,2013-07-01 21:45:00,
2013-07-01 17:50:00,79.9,71.3,29.94,SSE,159,4.0,9.0,75,0.00,,---,0.12,VWS V14.01,2013-07-01 21:50:00,
2013-07-01 17:55:00,79.8,71.9,29.94,ESE,105,3.0,9.0,77,0.00,,---,0.12,VWS V14.01,2013-07-01 21:55:00,
2013-07-01 18:00:00,79.6,72.1,29.94,SE,144,3.0,9.0,78,0.00,,---,0.12,VWS V14.01,2013-07-01 22:00:00,
2013-07-01 18:05:00,79.4,72.3,29.95,SSE,156,4.0,7.0,79,0.00,,---,0.12,VWS V14.01,2013-07-01 22:05:00,
2013-07-01 18:10:00,79.1,72.0,29.95,South,190,3.0,8.0,79,0.00,,---,0.12,VWS V14.01,2013-07-01 22:10:00,
2013-07-01 18:15:00,78.9,71.8,29.95,SSE,166,5.0,9.0,79,0.00,,---,0.12,VWS V14.01,2013-07-01 22:15:00,
2013-07-01 18:20:00,78.8,72.1,29.95,SSE,150,6.0,8.0,80,0.00,,---,0.12,VWS V14.01,2013-07-01 22:20:00,
2013-07-01 18:25:00,78.8,72.1,29.95,SE,127,1.0,8.0,80,0.00,,---,0.12,VWS V14.01,2013-07-01 22:25:00,
2013-07-01 18:30:00,78.7,72.0,29.95,South,178,4.0,5.0,80,0.00,,---,0.12,VWS V14.01,2013-07-01 22:30:00,
2013-07-01 18:35:00,78.6,71.9,29.95,SSE,162,0.0,6.0,80,0.00,,---,0.12,VWS V14.01,2013-07-01 22:35:00,
2013-07-01 18:40:00,78.4,71.7,29.95,South,184,2.0,9.0,80,0.00,,---,0.12,VWS V14.01,2013-07-01 22:40:00,
2013-07-01 18:45:00,78.3,71.6,29.95,SSE,168,3.0,5.0,80,0.00,,---,0.12,VWS V14.01,2013-07-01 22:45:00,
2013-07-01 18:51:00,78.1,71.8,29.95,South,178,0.0,7.0,81,0.00,,---,0.12,VWS V14.01,2013-07-01 22:51:00,
2013-07-01 18:56:00,78.0,71.7,29.95,South,171,3.0,7.0,81,0.00,,---,0.12,VWS V14.01,2013-07-01 22:56:00,
2013-07-01 19:00:00,77.9,71.6,29.95,SSE,149,4.0,7.0,81,0.00,,---,0.12,VWS V14.01,2013-07-01 23:00:00,
2013-07-01 19:01:00,77.8,71.9,29.95,SSE,155,3.0,5.0,82,0.00,,---,0.12,VWS V14.01,2013-07-01 23:01:00,
2013-07-01 19:06:00,77.8,71.9,29.95,South,175,1.0,7.0,82,0.00,,---,0.12,VWS V14.01,2013-07-01 23:06:00,
2013-07-01 19:11:00,77.6,72.0,29.95,ESE,110,1.0,7.0,83,0.00,,---,0.12,VWS V14.01,2013-07-01 23:11:00,
2013-07-01 19:15:00,77.5,71.6,29.95,SSE,154,2.0,7.0,82,0.00,,---,0.12,VWS V14.01,2013-07-01 23:15:00,
2013-07-01 19:16:00,77.5,71.6,29.95,SSE,154,1.0,2.0,82,0.00,,---,0.12,VWS V14.01,2013-07-01 23:16:00,
2013-07-01 19:21:00,77.3,71.7,29.95,SE,140,1.0,5.0,83,0.00,,---,0.12,VWS V14.01,2013-07-01 23:21:00,
2013-07-01 19:26:00,77.3,71.7,29.95,SSE,153,0.0,5.0,83,0.00,,---,0.12,VWS V14.01,2013-07-01 23:26:00,
2013-07-01 19:30:00,77.2,71.6,29.95,SE,140,1.0,5.0,83,0.00,,---,0.12,VWS V14.01,2013-07-01 23:30:00,
2013-07-01 19:31:00,77.2,71.6,29.95,SSE,153,1.0,2.0,83,0.00,,---,0.12,VWS V14.01,2013-07-01 23:31:00,
2013-07-01 19:36:00,77.1,71.5,29.95,SE,140,2.0,6.0,83,0.00,,---,0.12,VWS V14.01,2013-07-01 23:36:00,
2013-07-01 19:41:00,77.0,71.4,29.96,South,171,2.0,7.0,83,0.00,,---,0.12,VWS V14.01,2013-07-01 23:41:00,
2013-07-01 19:45:00,77.0,71.4,29.96,East,96,3.0,7.0,83,0.00,,---,0.12,VWS V14.01,2013-07-01 23:45:00,
2013-07-01 19:46:00,77.0,71.4,29.96,SSE,155,1.0,4.0,83,0.00,,---,0.12,VWS V14.01,2013-07-01 23:46:00,
2013-07-01 19:51:00,76.9,71.3,29.96,SSE,159,3.0,7.0,83,0.00,,---,0.12,VWS V14.01,2013-07-01 23:51:00,
2013-07-01 19:56:00,76.9,71.3,29.96,SSE,166,2.0,7.0,83,0.00,,---,0.12,VWS V14.01,2013-07-01 23:56:00,
2013-07-01 20:00:00,76.8,71.2,29.96,South,178,2.0,7.0,83,0.00,,---,0.12,VWS V14.01,2013-07-02 00:00:00,
2013-07-01 20:02:00,76.8,71.2,29.96,SE,140,2.0,5.0,83,0.00,,---,0.12,VWS V14.01,2013-07-02 00:02:00,
2013-07-01 20:07:00,76.7,71.5,29.96,ESE,112,2.0,7.0,84,0.00,,---,0.12,VWS V14.01,2013-07-02 00:07:00,
2013-07-01 20:12:00,76.6,71.4,29.96,SSE,153,4.0,7.0,84,0.00,,---,0.12,VWS V14.01,2013-07-02 00:12:00,
2013-07-01 20:15:00,76.5,71.3,29.96,SSE,150,5.0,8.0,84,0.00,,---,0.12,VWS V14.01,2013-07-02 00:15:00,
2013-07-01 20:17:00,76.4,71.6,29.96,SE,135,2.0,11.0,85,0.00,,---,0.12,VWS V14.01,2013-07-02 00:17:00,
2013-07-01 20:22:00,76.3,71.5,29.96,SSE,148,4.0,11.0,85,0.00,,---,0.12,VWS V14.01,2013-07-02 00:22:00,
2013-07-01 20:27:00,76.1,71.6,29.96,South,178,3.0,11.0,86,0.00,,---,0.12,VWS V14.01,2013-07-02 00:27:00,
2013-07-01 20:30:00,76.0,71.5,29.96,South,175,4.0,11.0,86,0.00,,---,0.12,VWS V14.01,2013-07-02 00:30:00,
2013-07-01 20:32:00,75.9,71.4,29.96,SSE,155,2.0,7.0,86,0.00,,---,0.12,VWS V14.01,2013-07-02 00:32:00,
2013-07-01 20:37:00,75.8,71.7,29.97,SSW,193,1.0,7.0,87,0.00,,---,0.12,VWS V14.01,2013-07-02 00:37:00,
2013-07-01 20:42:00,75.6,71.5,29.97,South,184,2.0,8.0,87,0.00,,---,0.12,VWS V14.01,2013-07-02 00:42:00,
2013-07-01 20:45:00,75.5,71.4,29.97,SE,136,3.0,8.0,87,0.00,,---,0.12,VWS V14.01,2013-07-02 00:45:00,
2013-07-01 20:47:00,75.5,71.7,29.97,South,169,4.0,9.0,88,0.00,,---,0.12,VWS V14.01,2013-07-02 00:47:00,
2013-07-01 21:00:00,74.8,70.7,29.97,SSE,158,4.0,9.0,87,0.00,,---,0.12,VWS V14.01,2013-07-02 01:00:00,
2013-07-01 21:15:00,74.3,70.5,29.98,South,180,4.0,10.0,88,0.00,,---,0.12,VWS V14.01,2013-07-02 01:15:00,
2013-07-01 21:30:00,73.7,70.3,29.99,SSE,158,4.0,10.0,89,0.00,,---,0.12,VWS V14.01,2013-07-02 01:30:00,
2013-07-01 21:45:00,73.0,69.9,30.00,SSE,158,5.0,12.0,90,0.00,,---,0.12,VWS V14.01,2013-07-02 01:45:00,
2013-07-01 22:00:00,72.6,69.8,30.00,SSE,158,4.0,11.0,91,0.00,,---,0.12,VWS V14.01,2013-07-02 02:00:00,
2013-07-01 22:15:00,72.4,69.6,30.01,SSE,158,3.0,8.0,91,0.00,,---,0.12,VWS V14.01,2013-07-02 02:15:00,
2013-07-01 22:30:00,72.5,70.1,30.01,SSE,158,3.0,9.0,92,0.00,,---,0.12,VWS V14.01,2013-07-02 02:30:00,
2013-07-01 22:45:00,72.6,70.2,30.01,South,180,4.0,9.0,92,0.00,,---,0.12,VWS V14.01,2013-07-02 02:45:00,
2013-07-01 23:00:00,72.6,70.2,30.02,South,180,4.0,10.0,92,0.00,,---,0.12,VWS V14.01,2013-07-02 03:00:00,
2013-07-01 23:15:00,72.8,70.0,30.02,SSE,158,3.0,9.0,91,0.00,,---,0.12,VWS V14.01,2013-07-02 03:15:00,
2013-07-01 23:42:00,72.7,69.9,30.03,South,174,2.0,3.0,91,0.00,,---,0.12,VWS V14.01,2013-07-02 03:42:00,
2013-07-01 23:47:00,72.7,69.9,30.03,South,173,4.0,6.0,91,0.00,,---,0.12,VWS V14.01,2013-07-02 03:47:00,
2013-07-01 23:52:00,72.7,69.9,30.03,South,186,2.0,8.0,91,0.00,,---,0.12,VWS V14.01,2013-07-02 03:52:00,
2013-07-01 23:57:00,72.6,69.8,30.03,SSW,200,4.0,8.0,91,0.00,,---,0.12,VWS V14.01,2013-07-02 03:57:00,